Change the Weather History Date:

Wednesday, April 16, 2014

  Actual Average Record
Temperature  
Mean Temperature 47 °F 49 °F  
Max Temperature 60 °F 61 °F 88 °F (2002)
Min Temperature 33 °F 37 °F 19 °F (1949)
Degree Days  
Heating Degree Days 18 16  
Month to date heating degree days 342 307  
Since 1 July heating degree days 7882 6632  
Cooling Degree Days 0 0  
Month to date cooling degree days 1 0  
Year to date cooling degree days 1 0  
Moisture  
Dew Point 27 °F    
Average Humidity 46    
Maximum Humidity 59    
Minimum Humidity 33    
Precipitation  
Precipitation 0.00 in 0.13 in 1.14 in (1945)
Month to date precipitation 4.70 1.77  
Year to date precipitation 8.83 5.65  
Snow  
Snow 0.00 in 0.10 in 4.70 in (1921)
Month to date snowfall 0.4 1.4  
Since 1 July snowfall 58.0 34.9  
Snow Depth 0.00 in    
Sea Level Pressure  
Sea Level Pressure 29.93 in    
Wind  
Wind Speed 21 mph (SSE)    
Max Wind Speed 33 mph    
Max Gust Speed 50 mph    
Visibility 10 miles    
Events      
T = Trace of Precipitation, MM = Missing Value Source: NWS Daily Summary

Daily Weather History Graph

Daily Weather History Graph

Search for Another Location

Airport or City:

Trip Planner

Search our weather history database for the weather conditions in past years. The results will help you decide how hot, cold, wet, or windy it might be!

Date:

Astronomy

Apr. 16, 2014 Rise Set
Actual Time 6:26 AM CDT 7:52 PM CDT
Civil Twilight 5:57 AM CDT 8:22 PM CDT
Nautical Twilight 5:22 AM CDT 8:57 PM CDT
Astronomical Twilight 4:44 AM CDT 9:35 PM CDT
Moon 9:38 PM CDT (4/16) 7:13 AM CDT (4/16)
Length of Visible Light 14h 24m
Length of Day
13h 25m
Full, 98% of the Moon is Illuminated
Apr 16
Full
Apr 22
Last Quarter
Apr 29
New
May 6
First Quarter
May 14
Full

Hourly Weather History & Observations

Time (CDT) Temp. Windchill Dew Point Humidity Pressure Visibility Wind Dir Wind Speed Gust Speed Precip Events Conditions
12:54 AM 33.1 °F 23.9 °F 18.0 °F 54% 30.09 in 10.0 mi ESE 12.7 mph - N/A   Partly Cloudy
1:54 AM 33.1 °F 23.4 °F 18.0 °F 54% 30.07 in 10.0 mi ESE 13.8 mph - N/A   Clear
2:54 AM 33.1 °F 22.6 °F 18.0 °F 54% 30.05 in 10.0 mi SE 16.1 mph - N/A   Scattered Clouds
3:54 AM 34.0 °F 23.8 °F 19.9 °F 56% 30.04 in 10.0 mi SE 16.1 mph 24.2 mph N/A   Mostly Cloudy
4:54 AM 35.1 °F 25.2 °F 21.0 °F 57% 30.02 in 10.0 mi SE 16.1 mph - N/A   Overcast
5:54 AM 36.0 °F 26.3 °F 23.0 °F 59% 30.01 in 10.0 mi SE 16.1 mph 26.5 mph N/A   Overcast
6:54 AM 37.0 °F 25.6 °F 23.0 °F 57% 30.00 in 10.0 mi SSE 24.2 mph 29.9 mph N/A   Overcast
7:54 AM 37.9 °F 27.6 °F 24.1 °F 57% 30.00 in 10.0 mi SSE 20.7 mph - N/A   Overcast
8:54 AM 39.9 °F 30.2 °F 25.0 °F 55% 29.99 in 10.0 mi SSE 20.7 mph 32.2 mph N/A   Mostly Cloudy
9:54 AM 46.0 °F 37.4 °F 27.0 °F 47% 29.96 in 10.0 mi SSE 25.3 mph 35.7 mph N/A   Clear
10:54 AM 48.9 °F - 28.0 °F 44% 29.95 in 10.0 mi South 28.8 mph 36.8 mph N/A   Partly Cloudy
11:54 AM 51.1 °F - 30.9 °F 46% 29.94 in 10.0 mi SSE 20.7 mph 31.1 mph N/A   Clear
12:54 PM 55.0 °F - 30.9 °F 40% 29.90 in 10.0 mi South 25.3 mph 36.8 mph N/A   Clear
1:54 PM 57.0 °F - 30.9 °F 37% 29.88 in 10.0 mi South 21.9 mph 31.1 mph N/A   Clear
2:54 PM 57.0 °F - 30.0 °F 36% 29.84 in 10.0 mi South 24.2 mph 36.8 mph N/A   Clear
3:54 PM 57.9 °F - 30.9 °F 36% 29.83 in 10.0 mi South 20.7 mph 33.4 mph N/A   Partly Cloudy
4:54 PM 57.9 °F - 28.9 °F 33% 29.84 in 10.0 mi South 29.9 mph 38.0 mph N/A   Clear
5:54 PM 57.0 °F - 30.9 °F 37% 29.84 in 10.0 mi South 20.7 mph 31.1 mph N/A   Overcast
6:54 PM 55.0 °F - 30.9 °F 40% 29.83 in 10.0 mi SSE 17.3 mph 27.6 mph N/A   Overcast
7:54 PM 54.0 °F - 30.9 °F 41% 29.82 in 10.0 mi SSE 19.6 mph 29.9 mph N/A   Overcast
8:54 PM 53.1 °F - 30.9 °F 43% 29.83 in 10.0 mi SSE 21.9 mph 31.1 mph N/A   Overcast
9:54 PM 51.1 °F - 30.0 °F 44% 29.83 in 10.0 mi SSE 27.6 mph 36.8 mph N/A   Mostly Cloudy
10:54 PM 48.9 °F - 30.0 °F 48% 29.84 in 10.0 mi SSE 20.7 mph 32.2 mph N/A   Clear
11:54 PM 48.0 °F - 30.9 °F 52% 29.87 in 10.0 mi South 15.0 mph - N/A   Overcast